{"data":{"norad_id":53591,"epoch":"2026-05-24T17:47:27.546720Z","epoch_age_seconds":87506,"freshness":"FRESH","line1":"1 53591U 22104D   26144.74129105  .00000111  00000+0  25056-4 0  9992","line2":"2 53591  53.2160 262.8817 0001333  90.3504 269.7641 15.08845120207443","mean_motion":15.0884512,"eccentricity":0.0001333,"inclination_deg":53.216,"raan_deg":262.8817,"arg_perigee_deg":90.3504,"mean_anomaly_deg":269.7641,"bstar":2.5056e-5,"rev_number":20744,"period_min":95.437230827244,"perigee_km":538.80558784691,"apogee_km":540.64989058638,"semimajor_km":6917.8647392166,"source":"CELESTRAK","updated_at":"2026-05-25T13:38:17.474211Z"}}